{"data":{"norad_id":54160,"intl_designator":"2022-141D","name":"STARLINK-5233","alt_names":[],"object_type":"PAYLOAD","status":"ACTIVE","operator":null,"country":"US","launch_date":"2022-10-28","launch_site_code":"AFWTR","launch_vehicle":null,"mission":null,"orbit_class":"UNKNOWN","rcs_meters":null,"size_class":null,"mass_kg":null,"dimensions":null,"purposes":["comms"],"wikipedia_slug":null,"has_3d_model":false,"image_url":null,"decayed_at":null,"tle_current":{"epoch":"2026-05-24T23:07:21.321408Z","epoch_age_seconds":81498,"freshness":"FRESH","line1":"1 54160U 22141D   26144.96344122  .00000059  00000+0  21793-4 0  9993","line2":"2 54160  53.2140 346.6819 0001236  76.6213 283.4917 15.08840323197866","mean_motion":15.08840323,"eccentricity":0.0001236,"inclination_deg":53.214,"raan_deg":346.6819,"arg_perigee_deg":76.6213,"mean_anomaly_deg":283.4917,"bstar":2.1793e-5,"rev_number":19786,"period_min":95.437534247287,"perigee_km":538.88735178845,"apogee_km":540.59745157655,"semimajor_km":6917.8794016825,"source":"CELESTRAK","updated_at":"2026-05-25T13:38:17.659542Z"}}}